Chicago Executive, IL

9:34 AM CST on December 09, 2019 (GMT -0600)
Chicago Executive

Weather History for KPWK - October, 2019

Change the Weather History Date:

Sunday, October 6, 2019

  Actual Average Record
Temperature  
Mean Temperature 60 °F 56 °F  
Max Temperature 69 °F 66 °F 88 °F (2007)
Min Temperature 51 °F 46 °F 33 °F (2001)
Degree Days  
Heating Degree Days 5 10  
Month to date heating degree days 31 55  
Since 1 July heating degree days 38 167  
Cooling Degree Days 0 1  
Month to date cooling degree days 13 6  
Year to date cooling degree days 996 784  
Growing Degree Days 10 (Base 50)    
Moisture  
Dew Point 46 °F    
Average Humidity 61    
Maximum Humidity 83    
Minimum Humidity 35    
Precipitation  
Precipitation 0.00 in 0.10 in 0.25 in (2017)
Month to date precipitation 1.48 0.68  
Year to date precipitation 38.17 26.37  
Sea Level Pressure  
Sea Level Pressure 30.05 in    
Wind  
Wind Speed 7 mph ()    
Max Wind Speed 16 mph    
Max Gust Speed 23 mph    
Visibility 8.5 miles    
Events      
T = Trace of Precipitation, MM = Missing Value Source: Averaged Metar Reports

Daily Weather History Graph

Daily Weather History Graph

Search for Another Location

Airport or City:

Astronomy

Oct. 06, 2019 Rise Set
Actual Time 6:53 AM CDT 6:24 PM CDT
Civil Twilight 6:25 AM CDT 6:52 PM CDT
Nautical Twilight 5:53 AM CDT 7:25 PM CDT
Astronomical Twilight 5:20 AM CDT 7:57 PM CDT
Moon 3:11 PM CDT (10/6) No Moon Set
Length of Visible Light 12h 27m
Length of Day
11h 31m
First Quarter, 60% of the Moon is Illuminated
Oct 6
First Quarter
Oct 13
Full
Oct 21
Last Quarter
Oct 27
New
Nov 4
First Quarter

Hourly Weather History & Observations

Time (CDT) Temp. Dew Point Humidity Pressure Visibility Wind Dir Wind Speed Gust Speed Precip Events Conditions
12:05 AM 60.1 °F 54.0 °F 80% 29.92 in 10.0 mi SW 6.9 mph 18.4 mph N/A   Overcast
12:52 AM 60.1 °F 55.0 °F 83% 29.92 in 10.0 mi SW 6.9 mph - N/A   Overcast
1:31 AM 61.0 °F 55.0 °F 81% 29.93 in 10.0 mi West 10.4 mph 16.1 mph N/A   Overcast
1:52 AM 60.1 °F 54.0 °F 80% 29.94 in 8.0 mi West 10.4 mph 18.4 mph N/A   Overcast
2:52 AM 59.0 °F 53.1 °F 81% 29.94 in 6.0 mi WNW 8.1 mph - N/A   Haze
3:11 AM 57.9 °F 50.0 °F 75% 29.95 in 6.0 mi WNW 9.2 mph - N/A   Haze
3:52 AM 55.9 °F 46.9 °F 72% 29.96 in 6.0 mi West 8.1 mph - N/A   Haze
4:52 AM 54.0 °F 46.0 °F 75% 30.00 in 5.0 mi WNW 9.2 mph - N/A   Haze
5:52 AM 53.1 °F 45.0 °F 74% 30.01 in 5.0 mi WNW 5.8 mph - N/A   Haze
6:52 AM 51.1 °F 44.1 °F 77% 30.04 in 5.0 mi West 4.6 mph - N/A   Haze
7:52 AM 53.1 °F 44.1 °F 71% 30.08 in 10.0 mi West 4.6 mph - N/A   Clear
8:52 AM 57.0 °F 44.1 °F 62% 30.08 in 7.0 mi Variable 4.6 mph - N/A   Clear
9:52 AM 61.0 °F 44.1 °F 54% 30.11 in 7.0 mi West 10.4 mph 21.9 mph N/A   Clear
10:52 AM 64.0 °F 44.1 °F 48% 30.11 in 5.0 mi West 16.1 mph 20.7 mph N/A   Haze
11:52 AM 64.9 °F 43.0 °F 45% 30.12 in 10.0 mi WNW 10.4 mph - N/A   Clear
12:52 PM 66.0 °F 44.1 °F 45% 30.11 in 10.0 mi West 10.4 mph 18.4 mph N/A   Clear
1:52 PM 69.1 °F 39.9 °F 35% 30.09 in 10.0 mi West 9.2 mph - N/A   Clear
2:52 PM 66.0 °F 39.9 °F 38% 30.09 in 10.0 mi West 8.1 mph 21.9 mph N/A   Clear
3:52 PM 64.9 °F 41.0 °F 42% 30.09 in 10.0 mi WSW 8.1 mph - N/A   Partly Cloudy
4:52 PM 64.9 °F 42.1 °F 43% 30.10 in 10.0 mi SW 5.8 mph - N/A   Partly Cloudy
5:52 PM 63.0 °F 43.0 °F 48% 30.10 in 10.0 mi SW 6.9 mph - N/A   Clear
6:52 PM 62.1 °F 44.1 °F 52% 30.10 in 10.0 mi SSW 4.6 mph - N/A   Clear
7:52 PM 61.0 °F 45.0 °F 56% 30.12 in 10.0 mi SSW 8.1 mph - N/A   Clear
8:52 PM 60.1 °F 44.1 °F 55% 30.13 in 10.0 mi SSW 5.8 mph - N/A   Clear
9:52 PM 60.1 °F 44.1 °F 55% 30.13 in 10.0 mi WSW 8.1 mph - N/A   Clear
10:52 PM 59.0 °F 44.1 °F 58% 30.14 in 10.0 mi WSW 6.9 mph - N/A   Clear
11:52 PM 57.9 °F 44.1 °F 60% 30.14 in 10.0 mi SW 6.9 mph - N/A   Clear